DWI5382 MDPC-KEWR

Flight info

Callsign DWI5382
Flight time 3h 53m
Altitude 32000
Route PIXAR2T PIXAR DCT ASIVO L453 MACKI/N0466F340 L453 CERDA DCT LNHOM/M079F340 L452 ZZTOP/M079F360 L452 OXANA/N0460F360 AR8 ECG DCT QUART PHLBO4
Aircraft B38M/M-SDE1FGHILORVWXY/HB1

Departure

Time 2026-05-07 20:06
Airport Punta Cana International Airport (MDPC)

Arrival

Time 2026-05-08 00:00
Airport Newark Liberty International Airport (KEWR)
Time Latitude Longitude Altitude Speed Heading
2026-05-07 19:36 18.56329 -68.36799 53 ft 0 kts 265°
2026-05-07 19:54 18.56330 -68.36793 53 ft 4 kts 265°
2026-05-07 19:54 18.56332 -68.36765 50 ft 3 kts 265°
2026-05-07 19:54 18.56334 -68.36743 53 ft 4 kts 266°
2026-05-07 19:55 18.56335 -68.36714 53 ft 4 kts 268°
2026-05-07 19:55 18.56335 -68.36708 53 ft 2 kts 268°
2026-05-07 19:59 18.56334 -68.36732 53 ft 6 kts 266°
2026-05-07 19:59 18.56335 -68.36735 53 ft 0 kts 287°
2026-05-07 19:59 18.56340 -68.36742 53 ft 2 kts 307°
2026-05-07 19:59 18.56350 -68.36746 46 ft 1 kts 358°
2026-05-07 20:00 18.56367 -68.36744 50 ft 4 kts
2026-05-07 20:00 18.56414 -68.36744 51 ft 9 kts 354°
2026-05-07 20:00 18.56494 -68.36754 53 ft 14 kts 343°
2026-05-07 20:00 18.56515 -68.36847 53 ft 16 kts 264°
2026-05-07 20:01 18.56503 -68.36981 49 ft 20 kts 265°
2026-05-07 20:01 18.56490 -68.37142 51 ft 24 kts 264°
2026-05-07 20:01 18.56475 -68.37308 50 ft 19 kts 264°
2026-05-07 20:01 18.56463 -68.37438 53 ft 16 kts 266°
2026-05-07 20:02 18.56457 -68.37550 50 ft 14 kts 266°
2026-05-07 20:02 18.56448 -68.37643 53 ft 12 kts 264°
2026-05-07 20:02 18.56443 -68.37720 53 ft 9 kts 275°
2026-05-07 20:02 18.56470 -68.37773 53 ft 8 kts 321°
2026-05-07 20:03 18.56527 -68.37786 52 ft 9 kts 355°
2026-05-07 20:03 18.56601 -68.37792 48 ft 12 kts 357°
2026-05-07 20:03 18.56678 -68.37812 48 ft 12 kts 319°
2026-05-07 20:03 18.56715 -68.37888 51 ft 11 kts 294°
2026-05-07 20:04 18.56748 -68.37962 51 ft 11 kts 294°
2026-05-07 20:04 18.56780 -68.38033 49 ft 10 kts 295°
2026-05-07 20:04 18.56808 -68.38101 47 ft 10 kts 294°
2026-05-07 20:04 18.56838 -68.38172 53 ft 11 kts 294°
2026-05-07 20:05 18.56881 -68.38242 53 ft 12 kts 326°
2026-05-07 20:05 18.56961 -68.38273 53 ft 12 kts 348°
2026-05-07 20:05 18.57026 -68.38274 50 ft 7 kts 36°
2026-05-07 20:05 18.57051 -68.38217 54 ft 18 kts 76°
2026-05-07 20:06 18.57158 -68.37826 50 ft 93 kts 73°
2026-05-07 20:06 18.57407 -68.36933 52 ft 158 kts 73°
2026-05-07 20:06 18.57726 -68.35684 387 ft 184 kts 79°
2026-05-07 20:06 18.58045 -68.34382 1151 ft 192 kts 72°
2026-05-07 20:07 18.58460 -68.32988 1787 ft 210 kts 73°
2026-05-07 20:07 18.58969 -68.31426 2250 ft 238 kts 63°
2026-05-07 20:07 18.60167 -68.30151 2920 ft 256 kts 28°
2026-05-07 20:07 18.61919 -68.29832 3818 ft 261 kts 351°
2026-05-07 20:08 18.63677 -68.30316 4784 ft 264 kts 343°
2026-05-07 20:08 18.65475 -68.30880 5512 ft 275 kts 345°
2026-05-07 20:08 18.67339 -68.31369 6057 ft 280 kts 347°
2026-05-07 20:08 18.69256 -68.31818 6172 ft 280 kts 347°
2026-05-07 20:09 18.71011 -68.32525 6257 ft 268 kts 328°
2026-05-07 20:09 18.72510 -68.33702 7084 ft 272 kts 316°
2026-05-07 20:09 18.73866 -68.35155 7681 ft 286 kts 314°
2026-05-07 20:10 18.76605 -68.38256 9289 ft 295 kts 314°
2026-05-07 20:10 18.78032 -68.39837 10125 ft 297 kts 314°
2026-05-07 20:10 18.79492 -68.41439 10695 ft 309 kts 314°
2026-05-07 20:10 18.81030 -68.43111 11090 ft 325 kts 314°
2026-05-07 20:11 18.82647 -68.44863 11501 ft 339 kts 314°
2026-05-07 20:11 18.84311 -68.46665 12114 ft 344 kts 314°
2026-05-07 20:11 18.85973 -68.48471 12911 ft 344 kts 314°
2026-05-07 20:11 18.87627 -68.50267 13572 ft 347 kts 314°
2026-05-07 20:12 18.89324 -68.52112 14197 ft 350 kts 314°
2026-05-07 20:12 18.91026 -68.53962 14768 ft 353 kts 315°
2026-05-07 20:12 18.92747 -68.55833 15326 ft 356 kts 315°
2026-05-07 20:12 18.94480 -68.57719 15895 ft 359 kts 315°
2026-05-07 20:13 18.96232 -68.59626 16429 ft 363 kts 315°
2026-05-07 20:13 18.98001 -68.61551 16953 ft 366 kts 315°
2026-05-07 20:13 18.99781 -68.63490 17477 ft 369 kts 315°
2026-05-07 20:13 19.01577 -68.65446 17978 ft 373 kts 315°
2026-05-07 20:14 19.03388 -68.67419 18438 ft 375 kts 315°
2026-05-07 20:14 19.05218 -68.69414 18881 ft 378 kts 315°
2026-05-07 20:14 19.07051 -68.71413 19292 ft 381 kts 315°
2026-05-07 20:14 19.08905 -68.73435 19709 ft 384 kts 315°
2026-05-07 20:15 19.10744 -68.75441 20114 ft 386 kts 315°
2026-05-07 20:15 19.12624 -68.77494 20533 ft 389 kts 315°
2026-05-07 20:15 19.14510 -68.79554 20941 ft 391 kts 315°
2026-05-07 20:15 19.16412 -68.81631 21337 ft 394 kts 315°
2026-05-07 20:16 19.18321 -68.83717 21740 ft 396 kts 315°
2026-05-07 20:16 19.20245 -68.85820 22144 ft 399 kts 315°
2026-05-07 20:16 19.22184 -68.87941 22541 ft 401 kts 316°
2026-05-07 20:16 19.24134 -68.90074 22924 ft 404 kts 316°
2026-05-07 20:17 19.26093 -68.92218 23331 ft 406 kts 316°
2026-05-07 20:17 19.28068 -68.94379 23696 ft 409 kts 316°
2026-05-07 20:17 19.30055 -68.96556 24030 ft 411 kts 316°
2026-05-07 20:17 19.32042 -68.98733 24396 ft 412 kts 316°
2026-05-07 20:18 19.34032 -69.00914 24755 ft 413 kts 316°
2026-05-07 20:18 19.36036 -69.03110 25098 ft 415 kts 316°
2026-05-07 20:18 19.38021 -69.05287 25450 ft 416 kts 316°
2026-05-07 20:18 19.40032 -69.07494 25802 ft 417 kts 316°
2026-05-07 20:19 19.42057 -69.09716 26141 ft 419 kts 316°
2026-05-07 20:19 19.44082 -69.11940 26480 ft 421 kts 316°
2026-05-07 20:19 19.46122 -69.14181 26825 ft 423 kts 316°
2026-05-07 20:19 19.48167 -69.16428 27158 ft 424 kts 316°
2026-05-07 20:20 19.50221 -69.18686 27483 ft 426 kts 316°
2026-05-07 20:20 19.52287 -69.20958 27809 ft 428 kts 317°
2026-05-07 20:20 19.54354 -69.23232 28122 ft 429 kts 317°
2026-05-07 20:20 19.56431 -69.25519 28428 ft 431 kts 317°
2026-05-07 20:21 19.58489 -69.27784 28729 ft 433 kts 317°
2026-05-07 20:21 19.60605 -69.30116 29037 ft 435 kts 317°
2026-05-07 20:21 19.62684 -69.32407 29326 ft 437 kts 317°
2026-05-07 20:21 19.64793 -69.34732 29618 ft 438 kts 317°
2026-05-07 20:22 19.66909 -69.37066 29899 ft 440 kts 317°
2026-05-07 20:22 19.69035 -69.39412 30163 ft 442 kts 317°
2026-05-07 20:22 19.71176 -69.41775 30399 ft 444 kts 317°
2026-05-07 20:22 19.73319 -69.44142 30628 ft 446 kts 317°
2026-05-07 20:23 19.75470 -69.46518 30859 ft 447 kts 317°
2026-05-07 20:23 19.77636 -69.48911 31078 ft 449 kts 317°
2026-05-07 20:23 19.79804 -69.51309 31303 ft 451 kts 317°
2026-05-07 20:23 19.81984 -69.53721 31523 ft 453 kts 317°
2026-05-07 20:24 19.84142 -69.56108 31743 ft 455 kts 317°
2026-05-07 20:24 19.86337 -69.58539 31965 ft 456 kts 317°
2026-05-07 20:24 19.88531 -69.60969 32227 ft 457 kts 317°
2026-05-07 20:24 19.90732 -69.63408 32547 ft 456 kts 318°
2026-05-07 20:25 19.92933 -69.65832 32870 ft 454 kts 320°
2026-05-07 20:25 19.95421 -69.67830 33174 ft 444 kts 336°
2026-05-07 20:25 19.98276 -69.68985 33507 ft 435 kts 351°
2026-05-07 20:25 20.01254 -69.69437 33795 ft 433 kts 356°
2026-05-07 20:26 20.04248 -69.69764 34067 ft 432 kts 357°
2026-05-07 20:26 20.07246 -69.70037 34338 ft 431 kts 358°
2026-05-07 20:26 20.10233 -69.70282 34617 ft 430 kts 358°
2026-05-07 20:26 20.13224 -69.70515 34890 ft 429 kts 358°
2026-05-07 20:27 20.16167 -69.70739 35156 ft 428 kts 358°
2026-05-07 20:27 20.19138 -69.70962 35408 ft 427 kts 357°
2026-05-07 20:27 20.22101 -69.71183 35654 ft 427 kts 357°
2026-05-07 20:27 20.25059 -69.71404 35903 ft 426 kts 357°
2026-05-07 20:28 20.28018 -69.71624 36016 ft 425 kts 357°
2026-05-07 20:28 20.33896 -69.72061 36027 ft 423 kts 357°
2026-05-07 20:29 20.39781 -69.72499 36026 ft 423 kts 357°
2026-05-07 20:29 20.45637 -69.72934 36029 ft 423 kts 357°
2026-05-07 20:30 20.51515 -69.73372 36021 ft 423 kts 357°
2026-05-07 20:30 20.57398 -69.73811 36032 ft 423 kts 357°
2026-05-07 20:31 20.63228 -69.74246 36027 ft 423 kts 357°
2026-05-07 20:31 20.69112 -69.74685 36036 ft 423 kts 357°
2026-05-07 20:32 20.75001 -69.75126 36025 ft 424 kts 357°
2026-05-07 20:32 20.80879 -69.75565 36026 ft 424 kts 357°
2026-05-07 20:33 20.86753 -69.76005 36028 ft 424 kts 357°
2026-05-07 20:33 20.92646 -69.76448 36042 ft 424 kts 357°
2026-05-07 20:34 20.98502 -69.76888 36030 ft 424 kts 357°
2026-05-07 20:34 21.04390 -69.77331 36029 ft 424 kts 357°
2026-05-07 20:35 21.10287 -69.77774 36037 ft 424 kts 357°
2026-05-07 20:35 21.16185 -69.78217 36039 ft 424 kts 357°
2026-05-07 20:36 21.22051 -69.78659 36030 ft 425 kts 357°
2026-05-07 20:36 21.27943 -69.79103 36042 ft 425 kts 357°
2026-05-07 20:37 21.33855 -69.79549 36032 ft 425 kts 357°
2026-05-07 20:37 21.39760 -69.79994 36032 ft 425 kts 357°
2026-05-07 20:38 21.45656 -69.80439 36031 ft 425 kts 356°
2026-05-07 20:38 21.51577 -69.80887 36030 ft 426 kts 356°
2026-05-07 20:39 21.57486 -69.81334 36036 ft 426 kts 356°
2026-05-07 20:39 21.63373 -69.81777 36038 ft 426 kts 356°
2026-05-07 20:40 21.69305 -69.82224 36047 ft 426 kts 356°
2026-05-07 20:40 21.74223 -69.82596 36043 ft 427 kts 356°
2026-05-07 20:41 21.80155 -69.83045 36051 ft 427 kts 356°
2026-05-07 20:41 21.86084 -69.83495 36045 ft 427 kts 356°
2026-05-07 20:42 21.92021 -69.83946 36041 ft 427 kts 356°
2026-05-07 20:42 21.97950 -69.84396 36034 ft 428 kts 356°
2026-05-07 20:43 22.03896 -69.84848 36044 ft 428 kts 356°
2026-05-07 20:43 22.09831 -69.85300 36039 ft 428 kts 356°
2026-05-07 20:44 22.15738 -69.85750 36046 ft 428 kts 356°
2026-05-07 20:44 22.21698 -69.86205 36041 ft 429 kts 356°
2026-05-07 20:45 22.27652 -69.86659 36042 ft 429 kts 356°
2026-05-07 20:45 22.33615 -69.87114 36054 ft 429 kts 356°
2026-05-07 20:46 22.39582 -69.87570 36044 ft 429 kts 355°
2026-05-07 20:46 22.45543 -69.88026 36041 ft 430 kts 355°
2026-05-07 20:47 22.51516 -69.88484 36047 ft 430 kts 355°
2026-05-07 20:47 22.57452 -69.88938 36041 ft 430 kts 355°
2026-05-07 20:48 22.63421 -69.89396 36044 ft 430 kts 355°
2026-05-07 20:48 22.69405 -69.89856 36044 ft 431 kts 355°
2026-05-07 20:49 22.75297 -69.90798 36037 ft 429 kts 338°
2026-05-07 20:49 22.80803 -69.93329 36052 ft 431 kts 337°
2026-05-07 20:50 22.86305 -69.95935 36046 ft 431 kts 336°
2026-05-07 20:50 22.91785 -69.98577 36055 ft 431 kts 336°
2026-05-07 20:51 22.97262 -70.01224 36057 ft 430 kts 336°
2026-05-07 20:51 23.02741 -70.03876 36050 ft 430 kts 336°
2026-05-07 20:52 23.08167 -70.06505 36044 ft 430 kts 336°
2026-05-07 20:52 23.13630 -70.09154 36048 ft 430 kts 336°
2026-05-07 20:53 23.19099 -70.11808 36050 ft 430 kts 336°
2026-05-07 20:53 23.24552 -70.14457 36054 ft 430 kts 336°
2026-05-07 20:54 23.30016 -70.17114 36061 ft 429 kts 336°
2026-05-07 20:54 23.35468 -70.19767 36054 ft 429 kts 336°
2026-05-07 20:55 23.40922 -70.22423 36052 ft 429 kts 336°
2026-05-07 20:55 23.46343 -70.25065 36053 ft 429 kts 336°
2026-05-07 20:56 23.51793 -70.27725 36058 ft 429 kts 336°
2026-05-07 20:56 23.57242 -70.30386 36058 ft 429 kts 336°
2026-05-07 20:57 23.62684 -70.33046 36058 ft 429 kts 336°
2026-05-07 20:57 23.68130 -70.35711 36052 ft 429 kts 336°
2026-05-07 20:58 23.73582 -70.38381 36063 ft 429 kts 336°
2026-05-07 20:58 23.79025 -70.41049 36051 ft 429 kts 336°
2026-05-07 20:59 23.84472 -70.43721 36054 ft 429 kts 336°
2026-05-07 20:59 23.89878 -70.46376 36056 ft 429 kts 336°
2026-05-07 21:00 23.95316 -70.49049 36059 ft 429 kts 336°
2026-05-07 21:00 24.00769 -70.51732 36056 ft 428 kts 336°
2026-05-07 21:01 24.06205 -70.54409 36062 ft 428 kts 335°
2026-05-07 21:01 24.11648 -70.57092 36054 ft 429 kts 335°
2026-05-07 21:02 24.17097 -70.59780 36059 ft 429 kts 335°
2026-05-07 21:02 24.22496 -70.62446 36056 ft 429 kts 335°
2026-05-07 21:03 24.27949 -70.65142 36058 ft 429 kts 335°
2026-05-07 21:03 24.33391 -70.67834 36066 ft 429 kts 335°
2026-05-07 21:04 24.38832 -70.70529 36058 ft 429 kts 335°
2026-05-07 21:04 24.44275 -70.73227 36073 ft 429 kts 335°
2026-05-07 21:05 24.49713 -70.75925 36057 ft 429 kts 335°
2026-05-07 21:05 24.55119 -70.78611 36056 ft 428 kts 335°
2026-05-07 21:06 24.60557 -70.81314 36058 ft 428 kts 335°
2026-05-07 21:06 24.65999 -70.84022 36064 ft 428 kts 335°
2026-05-07 21:07 24.71400 -70.86712 36066 ft 428 kts 335°
2026-05-07 21:07 24.76823 -70.89415 36066 ft 428 kts 335°
2026-05-07 21:08 24.82249 -70.92123 36058 ft 427 kts 335°
2026-05-07 21:08 24.87659 -70.94825 36059 ft 427 kts 335°
2026-05-07 21:09 24.93067 -70.97529 36056 ft 427 kts 335°
2026-05-07 21:09 24.98472 -71.00233 36060 ft 426 kts 335°
2026-05-07 21:09 25.01258 -71.01325 36059 ft 426 kts 346°
2026-05-07 21:10 25.04154 -71.02076 36047 ft 427 kts 345°
2026-05-07 21:10 25.09888 -71.03628 36059 ft 427 kts 345°
2026-05-07 21:11 25.15657 -71.05167 36068 ft 427 kts 345°
2026-05-07 21:11 25.24320 -71.07478 36069 ft 426 kts 345°
2026-05-07 21:12 25.30092 -71.09019 36063 ft 426 kts 345°
2026-05-07 21:12 25.35859 -71.10561 36066 ft 426 kts 345°
2026-05-07 21:13 25.41634 -71.12106 36069 ft 426 kts 345°
2026-05-07 21:13 25.47370 -71.13642 36070 ft 426 kts 345°
2026-05-07 21:14 25.53126 -71.15185 36071 ft 426 kts 345°
2026-05-07 21:14 25.58901 -71.16735 36071 ft 426 kts 345°
2026-05-07 21:15 25.64665 -71.18284 36070 ft 426 kts 345°
2026-05-07 21:15 25.70429 -71.19834 36071 ft 426 kts 345°
2026-05-07 21:16 25.76202 -71.21388 36071 ft 426 kts 345°
2026-05-07 21:16 25.81965 -71.22940 36071 ft 426 kts 345°
2026-05-07 21:17 25.87709 -71.24489 36070 ft 427 kts 345°
2026-05-07 21:17 25.93488 -71.26050 36070 ft 427 kts 345°
2026-05-07 21:18 25.99264 -71.27611 36072 ft 427 kts 345°
2026-05-07 21:18 26.05046 -71.29175 36074 ft 427 kts 345°
2026-05-07 21:19 26.10823 -71.30739 36069 ft 427 kts 345°
2026-05-07 21:19 26.16560 -71.32294 36071 ft 427 kts 345°
2026-05-07 21:20 26.22341 -71.33863 36071 ft 427 kts 345°
2026-05-07 21:20 26.28113 -71.35431 36069 ft 427 kts 345°
2026-05-07 21:21 26.33903 -71.37005 36074 ft 427 kts 345°
2026-05-07 21:21 26.39680 -71.38577 36073 ft 428 kts 345°
2026-05-07 21:22 26.45462 -71.40152 36073 ft 428 kts 345°
2026-05-07 21:22 26.51249 -71.41731 36072 ft 428 kts 345°
2026-05-07 21:23 26.56991 -71.43299 36068 ft 428 kts 345°
2026-05-07 21:23 26.62784 -71.44882 36069 ft 428 kts 345°
2026-05-07 21:24 26.68576 -71.46467 36075 ft 428 kts 345°
2026-05-07 21:24 26.74322 -71.48040 36075 ft 428 kts 345°
2026-05-07 21:25 26.80112 -71.49628 36072 ft 428 kts 344°
2026-05-07 21:25 26.85896 -71.51215 36072 ft 428 kts 344°
2026-05-07 21:26 26.90708 -71.52537 36069 ft 428 kts 344°
2026-05-07 21:26 26.96492 -71.54128 36069 ft 428 kts 344°
2026-05-07 21:27 27.03207 -71.55976 36072 ft 427 kts 344°
2026-05-07 21:27 27.08987 -71.57569 36073 ft 427 kts 344°
2026-05-07 21:28 27.13820 -71.58903 36074 ft 427 kts 344°
2026-05-07 21:28 27.19569 -71.60490 36075 ft 427 kts 344°
2026-05-07 21:29 27.25373 -71.62095 36070 ft 427 kts 344°
2026-05-07 21:29 27.31144 -71.63692 36072 ft 427 kts 344°
2026-05-07 21:30 27.36877 -71.65280 36072 ft 427 kts 343°
2026-05-07 21:30 27.42653 -71.66882 36075 ft 427 kts 343°
2026-05-07 21:31 27.48436 -71.68488 36073 ft 427 kts 343°
2026-05-07 21:31 27.54201 -71.70090 36073 ft 427 kts 343°
2026-05-07 21:32 27.59934 -71.71685 36069 ft 426 kts 343°
2026-05-07 21:32 27.65687 -71.73288 36071 ft 426 kts 343°
2026-05-07 21:33 27.71457 -71.74896 36071 ft 426 kts 343°
2026-05-07 21:33 27.77223 -71.76506 36070 ft 426 kts 343°
2026-05-07 21:34 27.82990 -71.78118 36071 ft 426 kts 343°
2026-05-07 21:34 27.88708 -71.79717 36070 ft 426 kts 343°
2026-05-07 21:35 27.94505 -71.81341 36068 ft 426 kts 343°
2026-05-07 21:35 28.00222 -71.82944 36069 ft 426 kts 343°
2026-05-07 21:36 28.05983 -71.84560 36070 ft 426 kts 343°
2026-05-07 21:36 28.11748 -71.86179 36069 ft 426 kts 343°
2026-05-07 21:37 28.17500 -71.87798 36070 ft 426 kts 343°
2026-05-07 21:37 28.23253 -71.89417 36070 ft 426 kts 343°
2026-05-07 21:38 28.28975 -71.91030 36068 ft 426 kts 343°
2026-05-07 21:38 28.34737 -71.92658 36065 ft 426 kts 342°
2026-05-07 21:39 28.40491 -71.94284 36066 ft 426 kts 342°
2026-05-07 21:39 28.46246 -71.95912 36066 ft 426 kts 342°
2026-05-07 21:40 28.52006 -71.97544 36068 ft 426 kts 342°
2026-05-07 21:40 28.57765 -71.99177 36066 ft 426 kts 342°
2026-05-07 21:41 28.63488 -72.00802 36064 ft 426 kts 342°
2026-05-07 21:41 28.69248 -72.02438 36064 ft 427 kts 342°
2026-05-07 21:42 28.75004 -72.04076 36064 ft 427 kts 342°
2026-05-07 21:42 28.80766 -72.05717 36064 ft 427 kts 342°
2026-05-07 21:43 28.86530 -72.07361 36065 ft 427 kts 342°
2026-05-07 21:43 28.92299 -72.09008 36063 ft 427 kts 342°
2026-05-07 21:44 28.98066 -72.10656 36059 ft 427 kts 342°
2026-05-07 21:44 29.03797 -72.12296 36062 ft 427 kts 341°
2026-05-07 21:45 29.09574 -72.13951 36061 ft 427 kts 341°
2026-05-07 21:45 29.15340 -72.15605 36062 ft 427 kts 341°
2026-05-07 21:46 29.21106 -72.17260 36061 ft 427 kts 341°
2026-05-07 21:46 29.26844 -72.18910 36063 ft 427 kts 341°
2026-05-07 21:47 29.32602 -72.20567 36056 ft 427 kts 341°
2026-05-07 21:47 29.38369 -72.22229 36060 ft 427 kts 341°
2026-05-07 21:48 29.44121 -72.23888 36053 ft 426 kts 341°
2026-05-07 21:48 29.49876 -72.25550 36052 ft 426 kts 341°
2026-05-07 21:49 29.55598 -72.27205 36053 ft 426 kts 341°
2026-05-07 21:49 29.61384 -72.28880 36055 ft 426 kts 341°
2026-05-07 21:50 29.67108 -72.30539 36052 ft 426 kts 341°
2026-05-07 21:50 29.72860 -72.32208 36051 ft 426 kts 341°
2026-05-07 21:51 29.78618 -72.33881 36048 ft 426 kts 341°
2026-05-07 21:51 29.84367 -72.35553 36048 ft 426 kts 341°
2026-05-07 21:52 29.90125 -72.37229 36048 ft 427 kts 340°
2026-05-07 21:52 29.95844 -72.38897 36045 ft 427 kts 340°
2026-05-07 21:53 30.01611 -72.40580 36044 ft 427 kts 340°
2026-05-07 21:53 30.07368 -72.42262 36041 ft 427 kts 340°
2026-05-07 21:54 30.13131 -72.43948 36032 ft 427 kts 340°
2026-05-07 21:54 30.18878 -72.45652 36027 ft 426 kts 340°
2026-05-07 21:55 30.24634 -72.47367 36037 ft 427 kts 340°
2026-05-07 21:55 30.30357 -72.49074 36031 ft 427 kts 340°
2026-05-07 21:56 30.36105 -72.50790 36039 ft 427 kts 340°
2026-05-07 21:56 30.41863 -72.52511 36044 ft 427 kts 340°
2026-05-07 21:57 30.47605 -72.54229 36031 ft 426 kts 340°
2026-05-07 21:57 30.53358 -72.55953 36033 ft 426 kts 340°
2026-05-07 21:58 30.59104 -72.57677 36033 ft 426 kts 340°
2026-05-07 21:58 30.64830 -72.59399 36399 ft 426 kts 339°
2026-05-07 21:59 30.67694 -72.60260 36723 ft 423 kts 339°
2026-05-07 21:59 30.70543 -72.61118 37063 ft 421 kts 339°
2026-05-07 21:59 30.73358 -72.61966 37389 ft 417 kts 339°
2026-05-07 21:59 30.76156 -72.62809 37728 ft 414 kts 339°
2026-05-07 22:00 30.78947 -72.63651 38009 ft 412 kts 339°
2026-05-07 22:00 30.81715 -72.64485 38007 ft 408 kts 339°
2026-05-07 22:00 30.87204 -72.66144 38020 ft 406 kts 339°
2026-05-07 22:01 30.92641 -72.67788 38024 ft 406 kts 339°
2026-05-07 22:01 30.98112 -72.69444 38019 ft 406 kts 339°
2026-05-07 22:02 31.03587 -72.71103 38025 ft 406 kts 339°
2026-05-07 22:02 31.09052 -72.72762 38017 ft 406 kts 339°
2026-05-07 22:03 31.14520 -72.74423 38015 ft 406 kts 339°
2026-05-07 22:03 31.19950 -72.76074 38015 ft 406 kts 338°
2026-05-07 22:04 31.25421 -72.77740 38015 ft 406 kts 338°
2026-05-07 22:04 31.30887 -72.79407 38014 ft 406 kts 338°
2026-05-07 22:05 31.36326 -72.81067 38009 ft 406 kts 338°
2026-05-07 22:05 31.41795 -72.82739 38011 ft 406 kts 338°
2026-05-07 22:06 31.47259 -72.84411 38010 ft 406 kts 338°
2026-05-07 22:06 31.52729 -72.86087 38003 ft 406 kts 338°
2026-05-07 22:07 31.58189 -72.87761 38005 ft 406 kts 338°
2026-05-07 22:07 31.63662 -72.89442 38004 ft 406 kts 338°
2026-05-07 22:08 31.69137 -72.91125 38000 ft 406 kts 338°
2026-05-07 22:08 31.74579 -72.92801 37994 ft 406 kts 338°
2026-05-07 22:09 31.80055 -72.94489 37997 ft 406 kts 338°
2026-05-07 22:09 31.85522 -72.96176 38006 ft 406 kts 338°
2026-05-07 22:10 31.90997 -72.97868 37999 ft 406 kts 338°
2026-05-07 22:10 31.96469 -72.99561 37987 ft 406 kts 338°
2026-05-07 22:11 32.01939 -73.01255 37989 ft 406 kts 338°
2026-05-07 22:11 32.07413 -73.02953 37995 ft 406 kts 338°
2026-05-07 22:12 32.12842 -73.04638 37988 ft 406 kts 338°
2026-05-07 22:12 32.18319 -73.06341 37983 ft 407 kts 338°
2026-05-07 22:13 32.23792 -73.08044 37983 ft 407 kts 338°
2026-05-07 22:13 32.29264 -73.09749 37978 ft 407 kts 338°
2026-05-07 22:14 32.33819 -73.11172 37979 ft 406 kts 338°
2026-05-07 22:14 32.39296 -73.12883 37974 ft 407 kts 338°
2026-05-07 22:15 32.44773 -73.14597 37972 ft 407 kts 338°
2026-05-07 22:15 32.50252 -73.16313 37968 ft 407 kts 338°
2026-05-07 22:16 32.55727 -73.18029 37967 ft 406 kts 338°
2026-05-07 22:16 32.61163 -73.19736 37962 ft 406 kts 338°
2026-05-07 22:17 32.66640 -73.21458 37965 ft 406 kts 338°
2026-05-07 22:17 32.72097 -73.23176 37963 ft 406 kts 338°
2026-05-07 22:18 32.80299 -73.25762 37956 ft 406 kts 338°
2026-05-07 22:19 32.85760 -73.27487 37960 ft 406 kts 338°
2026-05-07 22:19 32.91173 -73.29198 37947 ft 405 kts 338°
2026-05-07 22:20 32.96632 -73.30926 37945 ft 405 kts 338°
2026-05-07 22:20 33.02078 -73.32653 37949 ft 405 kts 338°
2026-05-07 22:21 33.07525 -73.34382 37943 ft 405 kts 338°
2026-05-07 22:21 33.12956 -73.36108 37948 ft 404 kts 338°
2026-05-07 22:22 33.18402 -73.37841 37940 ft 404 kts 338°
2026-05-07 22:22 33.23805 -73.39562 37939 ft 404 kts 338°
2026-05-07 22:23 33.29232 -73.41294 37939 ft 404 kts 338°
2026-05-07 22:23 33.34669 -73.43031 37936 ft 404 kts 338°
2026-05-07 22:24 33.40099 -73.44768 37933 ft 404 kts 338°
2026-05-07 22:24 33.45537 -73.46510 37933 ft 404 kts 338°
2026-05-07 22:25 33.50963 -73.48250 37928 ft 404 kts 338°
2026-05-07 22:25 33.56386 -73.49992 37931 ft 403 kts 337°
2026-05-07 22:26 33.61776 -73.51725 37921 ft 403 kts 337°
2026-05-07 22:26 33.67191 -73.53469 37922 ft 402 kts 337°
2026-05-07 22:27 33.72596 -73.55211 37919 ft 402 kts 337°
2026-05-07 22:27 33.78004 -73.56957 37913 ft 402 kts 336°
2026-05-07 22:28 33.83404 -73.58702 37911 ft 401 kts 336°
2026-05-07 22:28 33.88791 -73.60445 37909 ft 401 kts 336°
2026-05-07 22:29 33.94151 -73.62183 37904 ft 401 kts 336°
2026-05-07 22:29 33.99523 -73.63926 37897 ft 400 kts 336°
2026-05-07 22:30 34.04894 -73.65671 37893 ft 400 kts 336°
2026-05-07 22:30 34.10264 -73.67418 37892 ft 399 kts 336°
2026-05-07 22:31 34.15638 -73.69168 37880 ft 399 kts 336°
2026-05-07 22:31 34.20994 -73.70916 37880 ft 398 kts 336°
2026-05-07 22:32 34.26345 -73.72663 37879 ft 398 kts 335°
2026-05-07 22:32 34.31689 -73.74411 37874 ft 397 kts 335°
2026-05-07 22:33 34.36565 -73.76965 37867 ft 373 kts 314°
2026-05-07 22:33 34.40384 -73.81191 37865 ft 372 kts 311°
2026-05-07 22:34 34.44075 -73.85588 37863 ft 371 kts 310°
2026-05-07 22:34 34.47706 -73.90030 37848 ft 371 kts 310°
2026-05-07 22:35 34.51313 -73.94486 37847 ft 370 kts 310°
2026-05-07 22:35 34.54891 -73.98915 37841 ft 370 kts 310°
2026-05-07 22:36 34.58488 -74.03376 37840 ft 369 kts 310°
2026-05-07 22:36 34.62073 -74.07828 37835 ft 369 kts 310°
2026-05-07 22:37 34.65665 -74.12294 37834 ft 368 kts 310°
2026-05-07 22:37 34.69220 -74.16720 37829 ft 368 kts 310°
2026-05-07 22:38 34.72790 -74.21171 37831 ft 367 kts 309°
2026-05-07 22:38 34.76349 -74.25612 37827 ft 366 kts 309°
2026-05-07 22:39 34.79907 -74.30060 37825 ft 366 kts 309°
2026-05-07 22:39 34.83454 -74.34500 37823 ft 365 kts 309°
2026-05-07 22:40 34.86990 -74.38931 37822 ft 365 kts 309°
2026-05-07 22:40 34.90522 -74.43363 37823 ft 364 kts 309°
2026-05-07 22:41 34.94027 -74.47766 37819 ft 363 kts 309°
2026-05-07 22:41 34.97538 -74.52185 37818 ft 363 kts 309°
2026-05-07 22:42 35.01051 -74.56611 37815 ft 363 kts 309°
2026-05-07 22:42 35.04558 -74.61034 37815 ft 362 kts 309°
2026-05-07 22:43 35.08056 -74.65453 37821 ft 362 kts 309°
2026-05-07 22:43 35.11552 -74.69874 37822 ft 361 kts 309°
2026-05-07 22:44 35.15014 -74.74259 37824 ft 360 kts 309°
2026-05-07 22:44 35.18491 -74.78667 37825 ft 360 kts 309°
2026-05-07 22:45 35.21964 -74.83077 37825 ft 359 kts 309°
2026-05-07 22:45 35.25432 -74.87487 37829 ft 358 kts 309°
2026-05-07 22:46 35.28886 -74.91885 37832 ft 358 kts 309°
2026-05-07 22:46 35.32330 -74.96275 37840 ft 357 kts 309°
2026-05-07 22:47 35.35769 -75.00662 37836 ft 357 kts 309°
2026-05-07 22:47 35.39200 -75.05045 37847 ft 356 kts 309°
2026-05-07 22:48 35.42607 -75.09411 37850 ft 356 kts 309°
2026-05-07 22:48 35.46031 -75.13799 37851 ft 355 kts 309°
2026-05-07 22:49 35.49447 -75.18183 37839 ft 355 kts 309°
2026-05-07 22:49 35.52857 -75.22565 37852 ft 354 kts 309°
2026-05-07 22:50 35.56253 -75.26934 37859 ft 354 kts 309°
2026-05-07 22:50 35.59631 -75.31286 37861 ft 353 kts 309°
2026-05-07 22:51 35.63024 -75.35663 37865 ft 353 kts 309°
2026-05-07 22:51 35.66389 -75.40009 37867 ft 353 kts 309°
2026-05-07 22:52 35.69780 -75.44396 37871 ft 352 kts 309°
2026-05-07 22:52 35.73132 -75.48737 37874 ft 352 kts 308°
2026-05-07 22:53 35.76500 -75.53105 37880 ft 352 kts 309°
2026-05-07 22:53 35.79865 -75.57474 37881 ft 351 kts 308°
2026-05-07 22:54 35.83248 -75.61872 37880 ft 351 kts 308°
2026-05-07 22:54 35.86592 -75.66222 37881 ft 351 kts 308°
2026-05-07 22:55 35.89955 -75.70600 37880 ft 351 kts 308°
2026-05-07 22:55 35.93313 -75.74977 37881 ft 351 kts 308°
2026-05-07 22:56 35.96670 -75.79358 37877 ft 351 kts 308°
2026-05-07 22:56 36.00024 -75.83740 37874 ft 351 kts 308°
2026-05-07 22:57 36.03358 -75.88102 37878 ft 351 kts 308°
2026-05-07 22:57 36.06712 -75.92496 37887 ft 352 kts 308°
2026-05-07 22:58 36.10079 -75.96913 37902 ft 352 kts 308°
2026-05-07 22:58 36.13434 -76.01320 37908 ft 353 kts 308°
2026-05-07 22:59 36.16804 -76.05753 37898 ft 353 kts 308°
2026-05-07 22:59 36.20173 -76.10191 37907 ft 353 kts 308°
2026-05-07 23:00 36.23521 -76.14607 37895 ft 354 kts 308°
2026-05-07 23:00 36.27012 -76.18950 37955 ft 356 kts 310°
2026-05-07 23:01 36.30593 -76.23186 37930 ft 356 kts 310°
2026-05-07 23:01 36.34184 -76.27458 37912 ft 357 kts 310°
2026-05-07 23:02 36.37158 -76.31003 37909 ft 357 kts 310°
2026-05-07 23:02 36.41307 -76.35955 37914 ft 356 kts 310°
2026-05-07 23:03 36.44887 -76.40234 37931 ft 356 kts 309°
2026-05-07 23:03 36.47876 -76.43812 37932 ft 356 kts 309°
2026-05-07 23:04 36.51422 -76.48061 37928 ft 356 kts 309°
2026-05-07 23:04 36.54984 -76.52335 37933 ft 356 kts 309°
2026-05-07 23:05 36.58547 -76.56616 37937 ft 355 kts 309°
2026-05-07 23:05 36.62090 -76.60879 37942 ft 356 kts 309°
2026-05-07 23:06 36.65641 -76.65158 37939 ft 356 kts 309°
2026-05-07 23:06 36.69196 -76.69446 37938 ft 355 kts 309°
2026-05-07 23:07 36.72749 -76.73738 37936 ft 355 kts 308°
2026-05-07 23:07 36.76300 -76.78033 37931 ft 355 kts 308°
2026-05-07 23:08 36.79855 -76.82340 37926 ft 356 kts 308°
2026-05-07 23:08 36.83400 -76.86641 37926 ft 355 kts 308°
2026-05-07 23:09 36.86945 -76.90946 37919 ft 356 kts 308°
2026-05-07 23:09 36.90470 -76.95234 37921 ft 356 kts 308°
2026-05-07 23:10 36.94021 -76.99559 37918 ft 356 kts 308°
2026-05-07 23:10 36.97567 -77.03883 37921 ft 356 kts 307°
2026-05-07 23:11 37.01111 -77.08212 37922 ft 356 kts 307°
2026-05-07 23:11 37.04656 -77.12548 37925 ft 356 kts 307°
2026-05-07 23:12 37.08192 -77.16879 37925 ft 356 kts 307°
2026-05-07 23:12 37.11706 -77.21188 37935 ft 356 kts 307°
2026-05-07 23:13 37.15246 -77.25535 37942 ft 356 kts 307°
2026-05-07 23:13 37.18785 -77.29888 37942 ft 356 kts 307°
2026-05-07 23:14 37.22324 -77.34245 37938 ft 356 kts 307°
2026-05-07 23:14 37.25858 -77.38603 37939 ft 356 kts 307°
2026-05-07 23:15 37.29366 -77.42935 37942 ft 356 kts 306°
2026-05-07 23:15 37.32899 -77.47304 37938 ft 356 kts 306°
2026-05-07 23:16 37.36434 -77.51682 37938 ft 356 kts 306°
2026-05-07 23:16 37.39962 -77.56054 37942 ft 356 kts 306°
2026-05-07 23:17 37.43472 -77.60411 37939 ft 356 kts 306°
2026-05-07 23:17 37.47016 -77.64815 37941 ft 357 kts 306°
2026-05-07 23:17 37.48986 -77.66741 37933 ft 373 kts 320°
2026-05-07 23:18 37.51489 -77.67937 37940 ft 400 kts 334°
2026-05-07 23:18 37.54376 -77.68207 37938 ft 431 kts 350°
2026-05-07 23:18 37.57413 -77.67400 37930 ft 466 kts
2026-05-07 23:18 37.60336 -77.65327 37950 ft 499 kts 24°
2026-05-07 23:19 37.63147 -77.62743 37924 ft 494 kts 19°
2026-05-07 23:19 37.68958 -77.58076 37938 ft 496 kts 19°
2026-05-07 23:20 37.74761 -77.53370 37951 ft 497 kts 20°
2026-05-07 23:20 37.80576 -77.48647 37941 ft 497 kts 20°
2026-05-07 23:21 37.86402 -77.43905 37951 ft 497 kts 20°
2026-05-07 23:21 37.92192 -77.39183 37945 ft 497 kts 20°
2026-05-07 23:22 37.97999 -77.34439 37947 ft 497 kts 20°
2026-05-07 23:22 38.03824 -77.29679 37929 ft 498 kts 20°
2026-05-07 23:23 38.09645 -77.24911 37932 ft 498 kts 20°
2026-05-07 23:23 38.15461 -77.20140 37927 ft 498 kts 20°
2026-05-07 23:24 38.21284 -77.15352 37930 ft 498 kts 20°
2026-05-07 23:24 38.27110 -77.10555 37914 ft 498 kts 20°
2026-05-07 23:25 38.32752 -77.05252 37932 ft 507 kts 26°
2026-05-07 23:25 38.38384 -76.99822 37922 ft 507 kts 25°
2026-05-07 23:26 38.44009 -76.94428 37918 ft 507 kts 25°
2026-05-07 23:26 38.49638 -76.89022 37903 ft 507 kts 25°
2026-05-07 23:27 38.58112 -76.80863 37903 ft 508 kts 26°
2026-05-07 23:27 38.63772 -76.75400 37900 ft 509 kts 26°
2026-05-07 23:28 38.69393 -76.69965 37900 ft 510 kts 26°
2026-05-07 23:28 38.72236 -76.67212 37520 ft 511 kts 26°
2026-05-07 23:28 38.73213 -76.66264 37345 ft 510 kts 26°
2026-05-07 23:29 38.74140 -76.65364 37249 ft 511 kts 26°
2026-05-07 23:29 38.76975 -76.62597 37122 ft 513 kts 26°
2026-05-07 23:29 38.79829 -76.59808 37020 ft 516 kts 26°
2026-05-07 23:30 38.82680 -76.57021 36559 ft 513 kts 26°
2026-05-07 23:30 38.85523 -76.54239 35796 ft 516 kts 26°
2026-05-07 23:30 38.88392 -76.51429 35083 ft 518 kts 26°
2026-05-07 23:30 38.91252 -76.48625 34544 ft 516 kts 26°
2026-05-07 23:31 38.94096 -76.45833 34037 ft 513 kts 26°
2026-05-07 23:31 38.96933 -76.43045 33348 ft 513 kts 26°
2026-05-07 23:31 38.99771 -76.40253 32684 ft 512 kts 27°
2026-05-07 23:31 39.02584 -76.37446 32108 ft 514 kts 31°
2026-05-07 23:32 39.05233 -76.34323 31549 ft 516 kts 33°
2026-05-07 23:32 39.07865 -76.31224 31002 ft 512 kts 33°
2026-05-07 23:32 39.10498 -76.28159 30418 ft 510 kts 33°
2026-05-07 23:32 39.13145 -76.25092 29779 ft 510 kts 33°
2026-05-07 23:33 39.15780 -76.22044 29119 ft 508 kts 33°
2026-05-07 23:33 39.18367 -76.19047 28549 ft 504 kts 33°
2026-05-07 23:33 39.20952 -76.16050 27982 ft 500 kts 33°
2026-05-07 23:33 39.23550 -76.13034 27402 ft 497 kts 33°
2026-05-07 23:34 39.26106 -76.10063 26914 ft 493 kts 34°
2026-05-07 23:34 39.28625 -76.07103 26502 ft 486 kts 34°
2026-05-07 23:34 39.31104 -76.04188 26203 ft 477 kts 34°
2026-05-07 23:34 39.33539 -76.01324 25876 ft 469 kts 34°
2026-05-07 23:35 39.35931 -75.98508 25536 ft 462 kts 34°
2026-05-07 23:35 39.38291 -75.95726 25188 ft 456 kts 34°
2026-05-07 23:35 39.40625 -75.92974 24853 ft 451 kts 34°
2026-05-07 23:35 39.42925 -75.90258 24523 ft 445 kts 34°
2026-05-07 23:36 39.45197 -75.87573 24215 ft 439 kts 34°
2026-05-07 23:36 39.47410 -75.84955 23895 ft 433 kts 34°
2026-05-07 23:36 39.49609 -75.82352 23575 ft 428 kts 34°
2026-05-07 23:36 39.51805 -75.79749 23226 ft 423 kts 34°
2026-05-07 23:37 39.53953 -75.77201 22896 ft 418 kts 34°
2026-05-07 23:37 39.56114 -75.74636 22580 ft 418 kts 35°
2026-05-07 23:37 39.58224 -75.72129 22278 ft 416 kts 35°
2026-05-07 23:37 39.60354 -75.69596 21978 ft 414 kts 35°
2026-05-07 23:38 39.62473 -75.67075 21690 ft 412 kts 35°
2026-05-07 23:38 39.64579 -75.64566 21388 ft 409 kts 35°
2026-05-07 23:38 39.66670 -75.62074 21085 ft 407 kts 36°
2026-05-07 23:38 39.68753 -75.59574 20755 ft 405 kts 36°
2026-05-07 23:39 39.70815 -75.57093 20486 ft 403 kts 36°
2026-05-07 23:39 39.72850 -75.54644 20214 ft 401 kts 36°
2026-05-07 23:39 39.74882 -75.52197 19923 ft 399 kts 36°
2026-05-07 23:39 39.76926 -75.49733 19630 ft 397 kts 36°
2026-05-07 23:40 39.78936 -75.47308 19350 ft 395 kts 37°
2026-05-07 23:40 39.80956 -75.44870 19052 ft 393 kts 37°
2026-05-07 23:40 39.82953 -75.42458 18771 ft 391 kts 37°
2026-05-07 23:40 39.84940 -75.40054 18486 ft 389 kts 37°
2026-05-07 23:41 39.86893 -75.37690 18215 ft 387 kts 37°
2026-05-07 23:41 39.88867 -75.35299 17900 ft 385 kts 37°
2026-05-07 23:41 39.90825 -75.32927 17604 ft 383 kts 37°
2026-05-07 23:41 39.92779 -75.30556 17316 ft 382 kts 38°
2026-05-07 23:42 39.94720 -75.28200 17068 ft 380 kts 38°
2026-05-07 23:42 39.96655 -75.25848 16601 ft 384 kts 38°
2026-05-07 23:42 39.98664 -75.23406 15916 ft 397 kts 39°
2026-05-07 23:42 40.00684 -75.20943 15267 ft 401 kts 39°
2026-05-07 23:43 40.02729 -75.18452 14571 ft 407 kts 39°
2026-05-07 23:43 40.04813 -75.15911 13814 ft 413 kts 39°
2026-05-07 23:43 40.06932 -75.13323 12947 ft 419 kts 39°
2026-05-07 23:43 40.09067 -75.10715 12382 ft 415 kts 39°
2026-05-07 23:44 40.11139 -75.08180 11965 ft 403 kts 39°
2026-05-07 23:44 40.13172 -75.05693 11174 ft 398 kts 39°
2026-05-07 23:44 40.15140 -75.03281 10670 ft 381 kts 39°
2026-05-07 23:44 40.17017 -75.00979 10381 ft 359 kts 39°
2026-05-07 23:45 40.17820 -74.99993 10330 ft 347 kts 39°
2026-05-07 23:45 40.19515 -74.97914 10156 ft 325 kts 39°
2026-05-07 23:45 40.21058 -74.96019 9896 ft 309 kts 39°
2026-05-07 23:45 40.22655 -74.94052 9437 ft 298 kts 39°
2026-05-07 23:46 40.24138 -74.92229 9071 ft 287 kts 39°
2026-05-07 23:46 40.25313 -74.90765 8798 ft 278 kts 42°
2026-05-07 23:47 40.26399 -74.89260 8500 ft 272 kts 43°
2026-05-07 23:47 40.27709 -74.87438 8164 ft 276 kts 43°
2026-05-07 23:47 40.29031 -74.85597 7997 ft 278 kts 44°
2026-05-07 23:48 40.30779 -74.83133 7995 ft 279 kts 44°
2026-05-07 23:48 40.31672 -74.81878 7992 ft 279 kts 44°
2026-05-07 23:48 40.32979 -74.80040 7992 ft 279 kts 44°
2026-05-07 23:48 40.34303 -74.78178 7991 ft 279 kts 44°
2026-05-07 23:49 40.35126 -74.77020 7890 ft 279 kts 44°
2026-05-07 23:49 40.36042 -74.75445 7441 ft 289 kts 59°
2026-05-07 23:49 40.36887 -74.73018 6865 ft 296 kts 64°
2026-05-07 23:49 40.37736 -74.70556 6445 ft 296 kts 64°
2026-05-07 23:50 40.38581 -74.68153 6081 ft 293 kts 64°
2026-05-07 23:50 40.39440 -74.65737 5714 ft 289 kts 64°
2026-05-07 23:50 40.40289 -74.63366 5367 ft 286 kts 64°
2026-05-07 23:50 40.41122 -74.61051 5037 ft 282 kts 63°
2026-05-07 23:51 40.41954 -74.58740 4698 ft 279 kts 64°
2026-05-07 23:51 40.42780 -74.56445 4357 ft 276 kts 64°
2026-05-07 23:51 40.43537 -74.54344 4047 ft 273 kts 63°
2026-05-07 23:51 40.43652 -74.54025 4011 ft 272 kts 63°
2026-05-07 23:52 40.44448 -74.51813 3872 ft 262 kts 63°
2026-05-07 23:52 40.45212 -74.49688 3742 ft 252 kts 63°
2026-05-07 23:52 40.45946 -74.47646 3597 ft 243 kts 63°
2026-05-07 23:52 40.46646 -74.45697 3447 ft 235 kts 63°
2026-05-07 23:53 40.47328 -74.43797 3304 ft 227 kts 63°
2026-05-07 23:53 40.48002 -74.41922 3155 ft 227 kts 63°
2026-05-07 23:53 40.48650 -74.40044 3040 ft 226 kts 69°
2026-05-07 23:53 40.49120 -74.38063 3009 ft 226 kts 72°
2026-05-07 23:54 40.49574 -74.36091 2935 ft 226 kts 71°
2026-05-07 23:54 40.50037 -74.34122 2762 ft 223 kts 71°
2026-05-07 23:54 40.50496 -74.32186 2570 ft 222 kts 71°
2026-05-07 23:54 40.50959 -74.30255 2492 ft 220 kts 70°
2026-05-07 23:55 40.51555 -74.28433 2498 ft 215 kts 51°
2026-05-07 23:55 40.52618 -74.27136 2488 ft 203 kts 30°
2026-05-07 23:55 40.53825 -74.26274 2478 ft 193 kts 25°
2026-05-07 23:55 40.54994 -74.25521 2528 ft 187 kts 24°
2026-05-07 23:56 40.56186 -74.24766 2474 ft 189 kts 24°
2026-05-07 23:56 40.57343 -74.24032 2293 ft 177 kts 23°
2026-05-07 23:56 40.58389 -74.23370 2089 ft 162 kts 23°
2026-05-07 23:56 40.59401 -74.22729 1905 ft 160 kts 24°
2026-05-07 23:57 40.60394 -74.22099 1690 ft 155 kts 24°
2026-05-07 23:57 40.61350 -74.21492 1531 ft 150 kts 24°
2026-05-07 23:57 40.62278 -74.20903 1306 ft 147 kts 24°
2026-05-07 23:57 40.63195 -74.20321 1098 ft 145 kts 24°
2026-05-07 23:58 40.64104 -74.19743 902 ft 145 kts 24°
2026-05-07 23:58 40.65012 -74.19166 705 ft 144 kts 24°
2026-05-07 23:58 40.65908 -74.18597 515 ft 142 kts 24°
2026-05-07 23:58 40.66808 -74.18015 327 ft 145 kts 22°
2026-05-07 23:59 40.67716 -74.17447 141 ft 144 kts 22°
2026-05-07 23:59 40.68326 -74.17056 41 ft 134 kts 24°
2026-05-07 23:59 40.68895 -74.16708 28 ft 115 kts 26°
2026-05-07 23:59 40.69471 -74.16335 28 ft 63 kts 25°
2026-05-08 00:00 40.69735 -74.16170 23 ft 30 kts 25°
2026-05-08 00:00 40.69922 -74.16053 24 ft 24 kts 18°
2026-05-08 00:00 40.70025 -74.16132 26 ft 11 kts 298°
2026-05-08 00:00 40.70047 -74.16198 26 ft 0 kts 281°
2026-05-08 00:04 40.70047 -74.16200 26 ft 2 kts 279°
2026-05-08 00:04 40.70051 -74.16244 26 ft 8 kts 275°
2026-05-08 00:05 40.70059 -74.16352 22 ft 15 kts 276°
2026-05-08 00:05 40.70062 -74.16474 23 ft 10 kts 253°
2026-05-08 00:05 40.70021 -74.16526 27 ft 7 kts 211°
2026-05-08 00:05 40.69973 -74.16557 26 ft 9 kts 206°
2026-05-08 00:06 40.69898 -74.16606 26 ft 14 kts 206°
2026-05-08 00:06 40.69815 -74.16669 24 ft 12 kts 220°
2026-05-08 00:06 40.69750 -74.16702 24 ft 9 kts 197°
2026-05-08 00:06 40.69702 -74.16733 24 ft 7 kts 221°
2026-05-08 00:07 40.69674 -74.16798 24 ft 11 kts 250°
2026-05-08 00:07 40.69645 -74.16910 24 ft 15 kts 251°
2026-05-08 00:07 40.69619 -74.16998 24 ft 1 kts 246°
2026-05-08 00:07 40.69611 -74.17028 28 ft 3 kts 255°
2026-05-08 00:08 40.69601 -74.17071 24 ft 7 kts 249°
2026-05-08 00:08 40.69557 -74.17091 27 ft 9 kts 166°
2026-05-08 00:08 40.69479 -74.17071 28 ft 14 kts 172°
2026-05-08 00:08 40.69378 -74.17065 24 ft 14 kts 195°
2026-05-08 00:09 40.69294 -74.17108 24 ft 10 kts 204°
2026-05-08 00:09 40.69219 -74.17153 24 ft 11 kts 204°
2026-05-08 00:09 40.69147 -74.17213 25 ft 13 kts 231°
2026-05-08 00:09 40.69122 -74.17305 27 ft 8 kts 251°
2026-05-08 00:10 40.69122 -74.17355 24 ft 4 kts 333°
2026-05-08 00:10 40.69134 -74.17362 28 ft 3 kts 329°
2026-05-08 00:10 40.69143 -74.17370 24 ft 0 kts 323°